Vorticity
-15 18 7 20 0 -4 1 8 12 2 6 -9 22 7 -3 6 3 14 15 7 1 15 9 17 24 15 12 20 10 7 9 0 33 6 12 21 20 13 14 12 16 13 11 7
-13 -8 6 6 12 20 12 7 4 4 -4 8 10 10 6 5 9 5 1 0 14 5 10 13 19 22 7 16 23 22 4 20 20 18 16 18 17 12 11 14 7 -1 8 -6
26 12 8 12 14 13 8 10 8 6 6 20 -1 12 2 5 9 10 10 10 7 14 26 12 19 11 13 10 6 8 9 17 23 2 -7 2 6 16 16 17 14 11 18 16
7 9 14 11 8 7 10 15 12 15 15 10 13 10 4 10 17 16 8 8 17 15 26 11 15 10 10 8 5 5 4 0 8 18 7 25 -3 2 -4 3 -9 5 3 16
12 12 10 8 10 8 8 10 12 12 12 14 14 12 18 18 11 10 11 9 7 6 19 28 24 7 12 12 13 15 9 9 0 3 8 8 20 26 15 5 14 13 15 14
3 4 5 8 9 11 12 10 10 16 15 13 12 11 -3 8 16 8 9 11 10 7 11 15 16 21 21 6 3 1 7 10 12 10 -10 20 20 8 7 19 17 16 14 12
11 1 8 9 11 10 10 12 10 12 12 12 11 10 11 8 9 9 5 11 14 21 25 -1 8 10 9 13 15 17 21 21 16 21 19 3 1 8 15 16 14 14 10 14
12 9 4 7 10 7 11 13 12 12 11 12 13 15 13 12 12 10 10 8 7 11 19 20 18 26 12 2 2 7 14 18 14 14 16 21 20 16 20 14 11 10 9 11
6 8 6 4 8 7 10 12 9 9 13 12 10 14 15 11 11 10 13 9 10 9 4 6 -0 11 12 8 13 12 9 6 10 19 7 8 9 6 6 9 16 18 15 12
8 9 9 12 16 10 12 11 5 12 7 7 9 13 6 9 15 11 10 10 12 9 7 7 10 13 14 14 12 13 12 14 15 16 15 19 16 16 17 15 12 9 11 12
12 11 12 12 15 12 12 11 8 7 5 7 15 4 5 17 16 14 13 12 12 13 14 13 12 11 13 14 12 9 11 14 12 19 20 14 16 15 14 11 11 14 13 14
10 7 12 10 10 10 11 12 10 14 4 10 14 4 15 7 3 8 13 17 14 14 11 11 9 11 10 15 13 9 10 14 12 15 15 15 13 11 10 14 13 11 13 11
13 16 6 9 8 10 10 6 10 10 6 5 13 8 11 16 19 10 6 8 9 11 14 10 7 7 12 11 12 11 9 7 12 12 12 12 12 13 15 13 10 13 10 9
7 11 21 11 8 9 10 8 7 9 9 9 7 6 9 9 7 6 6 8 8 11 10 9 14 10 7 14 14 12 9 12 11 12 9 10 12 13 13 9 9 11 9 8
7 6 8 20 21 13 7 7 7 7 7 7 7 8 8 8 9 10 11 11 11 10 9 12 10 11 10 7 16 10 13 12 10 12 10 10 8 7 9 9 9 9 10 9
-0 5 6 7 10 19 23 24 18 13 12 12 13 9 11 12 11 11 11 11 12 13 13 12 10 11 13 9 6 12 7 6 5 6 9 16 12 13 12 11 11 10 9 7
6 4 3 8 6 7 8 9 12 15 16 15 14 13 10 7 8 6 7 13 10 9 15 15 16 13 11 15 11 4 9 12 13 11 11 10 10 9 9 9 8 8 8 9
22 15 14 11 7 6 5 4 4 3 4 4 5 4 4 2 2 2 2 2 6 11 8 8 9 16 20 14 12 13 11 4 8 9 8 10 11 9 10 14 13 11 10 9
10 13 12 15 16 14 12 10 7 8 9 8 4 4 1 -0 -0 -0 1 4 4 8 7 3 4 7 9 12 16 17 14 14 12 4 5 11 4 8 12 9 8 9 9 9
11 13 12 13 12 11 12 12 12 13 16 17 18 19 20 21 21 18 16 14 18 12 5 3 -2 2 2 4 7 13 13 15 16 13 13 10 5 12 6 5 5 5 8 8
20 14 13 12 13 11 10 12 13 14 14 13 13 14 14 15 16 17 17 16 15 15 15 12 14 11 12 12 7 2 3 13 12 14 15 12 13 9 5 6 9 11 11 7
21 18 17 16 13 11 10 12 14 17 17 17 17 16 16 19 23 26 29 26 20 14 11 9 8 10 15 11 10 10 9 5 10 12 12 15 15 12 11 11 10 4 3 3
15 12 14 12 13 8 9 15 17 11 16 16 12 11 12 3 6 11 15 15 23 27 28 25 22 19 18 19 18 17 19 17 17 11 11 13 15 16 14 11 9 10 11 11
4 7 6 8 7 8 10 4 -5 13 3 6 4 2 3 3 3 2 3 4 6 0 -2 11 27 21 15 6 6 19 17 16 17 16 15 15 16 17 18 17 14 12 11 11
3 3 3 7 11 8 9 14 12 22 15 4 1 -1 0 3 5 7 4 6 4 7 11 8 6 1 22 23 17 14 16 12 17 25 22 17 16 16 16 16 16 14 14 14
5 4 1 3 2 8 6 4 8 7 10 4 -1 -3 -4 -3 -1 2 6 6 7 6 10 13 24 9 4 9 15 20 6 10 13 11 15 17 16 17 18 20 21 23 19 17
8 9 6 7 7 8 8 9 8 3 3 11 12 8 3 -2 3 3 5 5 7 7 15 20 17 19 16 15 3 28 5 2 31 11 6 11 14 13 14 18 20 17 15 15
Height
5608 5611 5615 5619 5624 5627 5629 5633 5636 5642 5647 5651 5652 5656 5659 5661 5663 5663 5666 5667 5668 5668 5669 5669 5671 5674 5678 5682 5686 5690 5694 5697 5700 5702 5704 5707 5710 5713 5715 5717 5719 5722 5723 5723
5606 5611 5616 5618 5621 5624 5628 5631 5633 5637 5642 5645 5646 5649 5653 5656 5657 5657 5658 5659 5659 5660 5660 5660 5662 5665 5670 5673 5678 5681 5685 5687 5690 5692 5695 5697 5700 5703 5705 5707 5709 5711 5713 5713
5606 5610 5612 5617 5619 5621 5624 5628 5629 5632 5635 5636 5641 5644 5647 5649 5650 5651 5652 5652 5652 5651 5651 5653 5656 5659 5662 5666 5669 5672 5675 5677 5680 5683 5685 5688 5690 5693 5696 5697 5699 5700 5701 5703
5605 5608 5611 5614 5616 5618 5621 5622 5624 5627 5629 5630 5634 5637 5639 5642 5643 5644 5645 5645 5645 5644 5644 5646 5648 5651 5654 5657 5660 5662 5665 5668 5671 5674 5676 5678 5680 5682 5685 5687 5688 5689 5691 5691
5602 5605 5609 5611 5614 5616 5617 5619 5620 5622 5624 5626 5629 5631 5633 5635 5636 5637 5638 5638 5639 5638 5638 5639 5641 5644 5647 5649 5652 5655 5657 5659 5661 5664 5666 5668 5670 5672 5675 5676 5677 5678 5680 5681
5600 5603 5606 5608 5610 5611 5613 5614 5615 5617 5620 5622 5623 5626 5627 5629 5630 5631 5632 5633 5633 5634 5634 5634 5635 5637 5639 5642 5644 5646 5648 5650 5652 5654 5657 5659 5660 5662 5663 5665 5666 5668 5670 5672
5597 5600 5603 5604 5606 5607 5609 5614 5612 5613 5614 5616 5618 5620 5622 5623 5624 5625 5627 5627 5628 5629 5629 5630 5631 5632 5634 5635 5636 5638 5639 5641 5643 5645 5647 5649 5650 5652 5653 5655 5657 5659 5661 5663
5594 5597 5599 5601 5602 5604 5606 5607 5608 5609 5610 5612 5613 5615 5616 5617 5618 5620 5621 5622 5623 5623 5623 5623 5625 5627 5628 5629 5630 5631 5632 5633 5634 5636 5637 5638 5640 5643 5645 5647 5649 5651 5653 5655
5592 5593 5594 5595 5597 5598 5601 5603 5604 5605 5606 5607 5608 5609 5610 5611 5612 5613 5614 5616 5617 5618 5619 5620 5620 5621 5622 5623 5623 5624 5625 5625 5626 5627 5628 5630 5632 5634 5636 5639 5641 5642 5644 5646
5587 5588 5589 5591 5592 5594 5597 5598 5599 5600 5602 5603 5603 5604 5605 5606 5607 5608 5609 5610 5611 5612 5613 5614 5614 5615 5615 5616 5616 5617 5617 5617 5618 5619 5620 5621 5623 5626 5628 5630 5632 5634 5636 5638
5582 5584 5585 5586 5587 5589 5591 5593 5594 5596 5597 5598 5598 5599 5600 5601 5602 5603 5604 5604 5605 5606 5607 5607 5608 5608 5609 5609 5610 5611 5611 5611 5612 5612 5612 5614 5616 5618 5620 5623 5625 5626 5628 5630
5578 5580 5581 5581 5582 5583 5586 5588 5590 5591 5592 5592 5593 5594 5594 5596 5597 5598 5598 5599 5600 5600 5600 5601 5601 5602 5602 5603 5603 5604 5605 5605 5605 5606 5606 5608 5610 5611 5613 5615 5617 5619 5621 5624
5573 5575 5576 5576 5578 5579 5580 5582 5584 5586 5587 5588 5588 5589 5590 5591 5591 5592 5593 5593 5594 5594 5595 5595 5595 5595 5596 5596 5597 5598 5599 5600 5600 5600 5601 5602 5603 5605 5606 5608 5610 5612 5614 5617
5569 5569 5571 5572 5573 5574 5575 5577 5578 5580 5582 5583 5583 5584 5585 5585 5586 5586 5587 5588 5588 5588 5588 5589 5589 5589 5590 5590 5590 5591 5592 5592 5593 5594 5595 5596 5597 5598 5600 5602 5603 5605 5607 5609
5563 5565 5566 5566 5567 5569 5570 5571 5573 5574 5575 5577 5578 5578 5579 5580 5580 5581 5581 5581 5581 5581 5582 5582 5582 5582 5583 5583 5584 5584 5585 5586 5586 5587 5588 5589 5590 5591 5593 5595 5596 5598 5600 5601
5558 5559 5561 5562 5562 5563 5564 5565 5566 5567 5568 5570 5571 5572 5573 5574 5574 5575 5575 5575 5575 5574 5574 5574 5574 5575 5576 5576 5576 5577 5578 5578 5579 5580 5581 5582 5583 5584 5585 5586 5588 5590 5592 5593
5550 5553 5555 5557 5558 5558 5559 5559 5560 5561 5562 5563 5564 5565 5566 5567 5567 5568 5568 5568 5568 5567 5567 5567 5567 5567 5568 5568 5568 5569 5570 5570 5571 5573 5574 5575 5576 5576 5577 5578 5580 5582 5582 5583
5542 5545 5547 5549 5551 5552 5553 5554 5554 5555 5555 5556 5557 5558 5559 5559 5560 5560 5561 5561 5561 5560 5560 5560 5559 5559 5559 5559 5560 5560 5561 5562 5563 5564 5565 5566 5567 5568 5569 5570 5571 5572 5572 5573
5536 5537 5539 5541 5542 5543 5545 5546 5547 5547 5548 5549 5550 5550 5551 5551 5551 5551 5551 5552 5552 5551 5552 5551 5551 5551 5551 5551 5551 5551 5551 5552 5553 5555 5555 5556 5557 5558 5559 5560 5561 5562 5562 5563
5529 5530 5531 5533 5534 5535 5536 5537 5538 5538 5539 5539 5540 5540 5540 5540 5540 5540 5540 5540 5540 5541 5541 5541 5542 5542 5542 5542 5542 5542 5541 5541 5542 5543 5543 5544 5546 5547 5548 5549 5550 5551 5551 5551
5523 5523 5525 5526 5526 5528 5529 5529 5530 5530 5530 5530 5531 5530 5530 5530 5529 5528 5528 5528 5528 5529 5529 5529 5530 5530 5530 5530 5530 5531 5531 5530 5530 5530 5530 5531 5532 5534 5535 5536 5537 5538 5539 5539
5518 5518 5519 5519 5520 5521 5521 5522 5522 5523 5523 5522 5522 5522 5522 5521 5520 5519 5518 5517 5517 5517 5517 5517 5517 5517 5517 5517 5517 5517 5518 5518 5517 5517 5517 5517 5518 5519 5521 5522 5523 5524 5525 5526
5513 5513 5514 5514 5515 5515 5516 5516 5516 5516 5516 5516 5515 5515 5515 5515 5514 5512 5511 5510 5508 5507 5506 5506 5505 5504 5504 5504 5503 5503 5502 5503 5503 5503 5503 5503 5503 5504 5506 5507 5508 5509 5510 5510
5509 5509 5509 5510 5510 5510 5510 5510 5510 5510 5510 5509 5509 5509 5509 5508 5508 5507 5505 5503 5502 5500 5499 5497 5495 5494 5493 5492 5492 5490 5489 5489 5489 5489 5489 5489 5489 5490 5491 5492 5493 5494 5495 5495
5503 5503 5503 5503 5503 5503 5503 5503 5503 5503 5503 5503 5503 5502 5502 5501 5500 5498 5497 5496 5494 5492 5490 5488 5487 5485 5483 5481 5479 5478 5478 5477 5476 5475 5475 5475 5476 5476 5477 5477 5478 5479 5479 5480
5495 5495 5495 5495 5495 5495 5495 5495 5495 5496 5495 5495 5495 5494 5493 5492 5491 5490 5488 5486 5484 5482 5480 5478 5475 5473 5472 5470 5468 5467 5466 5466 5465 5465 5464 5464 5463 5463 5464 5464 5464 5465 5465 5466
5484 5485 5485 5486 5486 5486 5486 5486 5486 5486 5486 5485 5484 5484 5483 5482 5481 5479 5477 5475 5473 5470 5467 5465 5462 5460 5459 5458 5457 5456 5455 5455 5454 5454 5453 5453 5452 5452 5452 5452 5452 5452 5453 5453